Location: Burtsch�tz
(51.0528°N, 12.1764°E)
Time: 02:03:01
(UTC+00:00)

CSL-04 Rocket - Pass Details

Date: 29 October 2020
Orbit: 805 x 861 km, 98.9° (Epoch: 23 November)

Event Time Altitude Azimuth Distance (km) Brightness Sun altitude
Rises 16:54:27 0° 131° (SE) 3,426 6.5 -10.6°
Reaches altitude 10° 16:57:02 10° 122° (ESE) 2,490 5.7 -11.0°
Maximum altitude 17:01:53 33° 61° (ENE) 1,410 4.4 -11.7°
Drops below altitude 10° 17:06:44 10° 359° (N) 2,479 6.1 -12.5°
Sets 17:09:17 0° 350° (N) 3,410 6.9 -12.9°
